Regional Weather Roundup
Issued by NWS Newport/Morehead, NC

Current Version | Previous Version | Graphics & Text | Print | Product List | Glossary On
Versions: 1 2 3 4 5 6 7 8 9 10 11 12 13 14 15 16 17 18 19 20 21 22 23 24 25 26 27 28 29 30 31 32 33 34 35 36 37 38 39 40 41 42 43 44 45 46 47 48 49 50
000 ASUS42 KMHX 270725 RWRMHX WEATHER ROUNDUP FOR EASTERN NORTH CAROLINA NATIONAL WEATHER SERVICE NEWPORT/MOREHEAD CITY NC 300 AM EDT TUE JUN 27 2017 NOTE: "FAIR" INDICATES FEW OR NO CLOUDS BELOW 12,000 FEET WITH NO SIGNIFICANT WEATHER AND/OR OBSTRUCTIONS TO VISIBILITY NCZ015>017-031-032-045>047-102-103-270800- NORTH COAST CITY SKY/WX TMP DP RH WIND PRES REMARKS EDENTON CLEAR 74 66 77 CALM 30.02S ELIZABETH CITY MOCLDY 68 65 90 S5 30.01S KITTY HAWK SUNNY 70 63 79 CALM 30.00F MANTEO CLEAR 66 63 91 CALM 30.02F $$ NCZ045>047-081-094-103-104-270800- CENTRAL COAST CITY SKY/WX TMP DP RH WIND PRES REMARKS FRISCO PTCLDY 67 64 90 CALM 30.01F $$ NCZ095-097-098-100-101-270800- SOUTHERN COAST CITY SKY/WX TMP DP RH WIND PRES REMARKS BEAUFORT CLOUDY 69 68 96 CALM 30.01F CEDAR ISLAND NOT AVBL JACKSONVILLE CLEAR 66 66 100 CALM 30.01S PINEY ISLAND MOSUNNY N/A N/A N/A SW3 30.01F WILMINGTON CLOUDY 66 65 96 CALM 30.02S $$ NCZ011>013-027>030-043-044-078>080-089-090>093-098-270800- COASTAL PLAIN CITY SKY/WX TMP DP RH WIND PRES REMARKS AHOSKIE N/A 64 63 98 CALM 30.01S CLINTON CLEAR 66 64 93 CALM 30.02S ELIZABETHTOWN NOT AVBL GOLDSBORO CLOUDY 66 66 99 CALM 30.00S GREENVILLE CLOUDY 70 64 83 CALM 30.03S HAVELOCK CLOUDY 67 65 93 CALM 30.02F KENANSVILLE CLEAR 63 61 94 CALM 30.03S KINSTON CLEAR 64 63 94 CALM 30.02F NEW BERN CLEAR 65 65 100 S3 30.03S RICHLANDS CLEAR 62 61 96 CALM 30.03S ROCKY MOUNT CLOUDY 67 66 97 CALM 30.01S WASHINGTON N/A N/A N/A N/A CALM 30.02S WHITEVILLE CLEAR 65 63 93 CALM 30.03R $$ AMZ130-135-150-152-154-156-158-170-250-252-270-ANZ085-086-088-633-658-670-270800- MARINE OBSERVATIONS STATION/POSITION TIME TEMP WIND PRES WAVE SWELL AIR SEA DIR/SP/G HT/PER HT/PER (UTC) (F) (DEG/KT/KT) (MB) (FT/S) (FT/S) CHESAPEAKE LIGHT NOT AVBL 64 E VA BEACH 0650 73 73 150/ 4/ 6 1016.8 2/ 8 2/ 8 DUCK 0700 72 71 160/ 5/ 6 1015.9 2 E DUCK NOT AVBL OREGON INLET 0700 71 76 100/ 2/ 3 1016.2 13E OREGON INLT 0648 74 N/A 2/ 8 2/ 8 HATTERAS CG 0700 74 78 180/ 1/ 2 1016.1 DIAMOND BUOY 0650 77 81 360/ 4/ 6 1016.2 2/ 8 2/ 8 CAPE LOOKOUT 0700 76 CALM / 1 1015.9 BEAUFORT LAB 0700 73 78 10/ 1/ 1 1015.7 30 SE NEW RVR IN 0608 77 81 20/ 2/ 6 1016.5 30 SE NEW RVR IN 0643 81 N/A 2/ 8 27 SE WRIGHTSVLE 0708 77 80 360/ 4/ 6 1015.3 5 SE WRIGHTSVLE 0608 77 79 CALM / 2 1016.3 225 S CAPE HAT 0650 80 80 200/ 12/ 14 1015.7 3/ 6 2/ 7 41 SE CHARLESTON 0710 79 81 60/ 6/ 6 1015.8 $$

USA.gov is the U.S. government's official web portal to all federal, state and local government web resources and services.